Time,TemperatureF,DewpointF,PressureIn,WindDirection,WindDirectionDegrees,WindSpeedMPH,WindSpeedGustMPH,Humidity,HourlyPrecipIn,Conditions,Clouds,dailyrainin,SoftwareType,DateUTC
2013-01-08 00:15:00,28.0,25.0,30.02,South,174,0.0,5.0,87,0.00,,,0.00,weatherlink.com 1.10,2013-01-08 06:15:00,
2013-01-08 00:30:00,27.9,25.0,30.02,South,174,2.0,4.0,88,0.00,,,0.00,weatherlink.com 1.10,2013-01-08 06:30:00,
2013-01-08 00:45:00,28.1,25.0,30.03,South,173,4.0,6.0,88,0.00,,,0.00,weatherlink.com 1.10,2013-01-08 06:45:00,
2013-01-08 01:00:00,28.1,25.0,30.03,South,173,0.0,4.0,88,0.00,,,0.00,weatherlink.com 1.10,2013-01-08 07:00:00,
2013-01-08 01:15:00,27.9,25.0,30.03,South,173,0.0,5.0,88,0.00,,,0.00,weatherlink.com 1.10,2013-01-08 07:15:00,
2013-01-08 01:30:00,27.7,25.0,30.02,South,171,0.0,7.0,88,0.00,,,0.00,weatherlink.com 1.10,2013-01-08 07:30:00,
2013-01-08 01:45:00,27.6,25.0,30.02,South,171,4.0,5.0,88,0.00,,,0.00,weatherlink.com 1.10,2013-01-08 07:45:00,
2013-01-08 02:00:00,27.6,25.0,30.02,SSE,167,4.0,7.0,88,0.00,,,0.00,weatherlink.com 1.10,2013-01-08 08:00:00,
2013-01-08 02:15:00,27.4,24.0,30.02,SSE,161,2.0,7.0,87,0.00,,,0.00,weatherlink.com 1.10,2013-01-08 08:15:00,
2013-01-08 02:30:00,27.0,24.0,30.02,SSE,161,3.0,6.0,87,0.00,,,0.00,weatherlink.com 1.10,2013-01-08 08:30:00,
2013-01-08 02:45:00,26.8,24.0,30.02,SSE,161,0.0,5.0,87,0.00,,,0.00,weatherlink.com 1.10,2013-01-08 08:45:00,
2013-01-08 03:00:00,26.6,23.0,30.02,SSE,161,0.0,0.0,87,0.00,,,0.00,weatherlink.com 1.10,2013-01-08 09:00:00,
2013-01-08 03:15:00,26.2,23.0,30.01,SSE,161,2.0,5.0,88,0.00,,,0.00,weatherlink.com 1.10,2013-01-08 09:15:00,
2013-01-08 03:30:00,26.5,23.0,30.01,SSE,161,0.0,0.0,88,0.00,,,0.00,weatherlink.com 1.10,2013-01-08 09:30:00,
2013-01-08 03:45:00,26.5,23.0,30.00,SSE,161,0.0,0.0,88,0.00,,,0.00,weatherlink.com 1.10,2013-01-08 09:45:00,
2013-01-08 04:00:00,26.7,24.0,30.00,SSE,161,0.0,2.0,88,0.00,,,0.00,weatherlink.com 1.10,2013-01-08 10:00:00,
2013-01-08 04:15:00,26.9,24.0,29.99,SSE,161,1.0,2.0,88,0.00,,,0.00,weatherlink.com 1.10,2013-01-08 10:15:00,
2013-01-08 04:30:00,27.1,24.0,29.99,SSE,161,0.0,4.0,88,0.00,,,0.00,weatherlink.com 1.10,2013-01-08 10:30:00,
2013-01-08 04:45:00,26.9,24.0,29.99,SSE,161,2.0,4.0,87,0.00,,,0.00,weatherlink.com 1.10,2013-01-08 10:45:00,
2013-01-08 05:00:00,26.7,23.0,29.98,SSE,161,3.0,5.0,87,0.00,,,0.00,weatherlink.com 1.10,2013-01-08 11:00:00,
2013-01-08 05:15:00,26.6,24.0,29.98,SSE,161,5.0,5.0,88,0.00,,,0.00,weatherlink.com 1.10,2013-01-08 11:15:00,
2013-01-08 05:30:00,26.5,23.0,29.98,SSE,161,0.0,4.0,88,0.00,,,0.00,weatherlink.com 1.10,2013-01-08 11:30:00,
2013-01-08 05:45:00,26.3,23.0,29.98,SSE,161,2.0,6.0,88,0.00,,,0.00,weatherlink.com 1.10,2013-01-08 11:45:00,
2013-01-08 06:00:00,26.1,23.0,29.97,SSE,161,2.0,6.0,88,0.00,,,0.00,weatherlink.com 1.10,2013-01-08 12:00:00,
2013-01-08 06:15:00,26.3,23.0,29.97,SSE,161,0.0,5.0,88,0.00,,,0.00,weatherlink.com 1.10,2013-01-08 12:15:00,
2013-01-08 06:30:00,26.4,24.0,29.98,SSE,160,1.0,7.0,89,0.00,,,0.00,weatherlink.com 1.10,2013-01-08 12:30:00,
2013-01-08 06:45:00,26.3,23.0,29.97,SSE,159,3.0,8.0,88,0.00,,,0.00,weatherlink.com 1.10,2013-01-08 12:45:00,
2013-01-08 07:00:00,25.9,23.0,29.98,SSE,158,2.0,7.0,88,0.00,,,0.00,weatherlink.com 1.10,2013-01-08 13:00:00,
2013-01-08 07:15:00,26.0,23.0,29.98,SSE,158,2.0,6.0,89,0.00,,,0.00,weatherlink.com 1.10,2013-01-08 13:15:00,
2013-01-08 07:30:00,26.1,23.0,29.97,SSE,158,5.0,6.0,89,0.00,,,0.00,weatherlink.com 1.10,2013-01-08 13:30:00,
2013-01-08 07:45:00,26.2,23.0,29.98,SSE,158,0.0,4.0,89,0.00,,,0.00,weatherlink.com 1.10,2013-01-08 13:45:00,
2013-01-08 08:00:00,26.1,23.0,29.98,SSE,158,1.0,6.0,89,0.00,,,0.00,weatherlink.com 1.10,2013-01-08 14:00:00,
2013-01-08 08:15:00,26.1,23.0,29.99,SSE,158,3.0,6.0,89,0.00,,,0.00,weatherlink.com 1.10,2013-01-08 14:15:00,
2013-01-08 08:30:00,26.3,24.0,29.99,SSE,158,2.0,7.0,89,0.00,,,0.00,weatherlink.com 1.10,2013-01-08 14:30:00,
2013-01-08 08:45:00,26.8,24.0,29.99,SSE,157,2.0,6.0,89,0.00,,,0.00,weatherlink.com 1.10,2013-01-08 14:45:00,
2013-01-08 09:00:00,27.2,24.0,30.00,SSE,157,1.0,6.0,89,0.00,,,0.00,weatherlink.com 1.10,2013-01-08 15:00:00,
2013-01-08 09:15:00,28.3,26.0,30.00,SSE,157,3.0,7.0,89,0.00,,,0.00,weatherlink.com 1.10,2013-01-08 15:15:00,
2013-01-08 09:30:00,29.3,26.0,29.99,SSE,157,0.0,5.0,88,0.00,,,0.00,weatherlink.com 1.10,2013-01-08 15:30:00,
2013-01-08 09:45:00,30.3,27.0,29.99,SSE,157,3.0,6.0,87,0.00,,,0.00,weatherlink.com 1.10,2013-01-08 15:45:00,
2013-01-08 10:01:00,31.2,28.0,29.99,SSE,156,0.0,6.0,86,0.00,,,0.00,weatherlink.com 1.10,2013-01-08 16:01:00,
2013-01-08 10:16:00,32.8,29.0,29.98,SSE,154,0.0,9.0,85,0.00,,,0.00,weatherlink.com 1.10,2013-01-08 16:16:00,
2013-01-08 10:31:00,35.2,30.0,29.98,SSE,154,3.0,7.0,82,0.00,,,0.00,weatherlink.com 1.10,2013-01-08 16:31:00,
2013-01-08 10:46:00,36.9,31.0,29.98,SSE,159,4.0,7.0,80,0.00,,,0.00,weatherlink.com 1.10,2013-01-08 16:46:00,
2013-01-08 11:01:00,38.4,32.0,29.97,SSE,159,2.0,10.0,77,0.00,,,0.00,weatherlink.com 1.10,2013-01-08 17:01:00,
2013-01-08 11:16:00,39.2,32.0,29.96,South,169,2.0,10.0,76,0.00,,,0.00,weatherlink.com 1.10,2013-01-08 17:16:00,
2013-01-08 11:31:00,41.0,33.0,29.96,South,180,4.0,13.0,73,0.00,,,0.00,weatherlink.com 1.10,2013-01-08 17:31:00,
2013-01-08 11:46:00,41.1,33.0,29.94,SSW,198,14.0,16.0,72,0.00,,,0.00,weatherlink.com 1.10,2013-01-08 17:46:00,
2013-01-08 12:01:00,41.2,33.0,29.93,SSW,200,3.0,14.0,72,0.00,,,0.00,weatherlink.com 1.10,2013-01-08 18:01:00,
2013-01-08 12:16:00,41.7,33.0,29.93,South,175,6.0,13.0,71,0.00,,,0.00,weatherlink.com 1.10,2013-01-08 18:16:00,
2013-01-08 12:31:00,42.0,33.0,29.92,South,169,3.0,13.0,71,0.00,,,0.00,weatherlink.com 1.10,2013-01-08 18:31:00,
2013-01-08 12:46:00,41.9,33.0,29.91,SSE,161,8.0,17.0,71,0.00,,,0.00,weatherlink.com 1.10,2013-01-08 18:46:00,
2013-01-08 13:01:00,41.9,33.0,29.89,SSE,161,4.0,13.0,71,0.00,,,0.00,weatherlink.com 1.10,2013-01-08 19:01:00,
2013-01-08 13:16:00,42.7,34.0,29.88,SSE,161,5.0,12.0,70,0.00,,,0.00,weatherlink.com 1.10,2013-01-08 19:16:00,
2013-01-08 13:31:00,42.5,33.0,29.88,SSE,151,4.0,16.0,70,0.00,,,0.00,weatherlink.com 1.10,2013-01-08 19:31:00,
2013-01-08 13:46:00,42.7,34.0,29.87,SSE,155,0.0,11.0,71,0.00,,,0.00,weatherlink.com 1.10,2013-01-08 19:46:00,
2013-01-08 14:01:00,43.1,34.0,29.86,SSE,151,0.0,12.0,70,0.00,,,0.00,weatherlink.com 1.10,2013-01-08 20:01:00,
2013-01-08 14:16:00,43.6,34.0,29.86,South,173,8.0,14.0,69,0.00,,,0.00,weatherlink.com 1.10,2013-01-08 20:16:00,
2013-01-08 14:31:00,44.3,34.0,29.85,SSE,167,8.0,17.0,67,0.00,,,0.00,weatherlink.com 1.10,2013-01-08 20:31:00,
2013-01-08 14:46:00,44.4,34.0,29.86,South,174,6.0,16.0,66,0.00,,,0.00,weatherlink.com 1.10,2013-01-08 20:46:00,
2013-01-08 15:01:00,45.0,34.0,29.88,SSW,212,2.0,13.0,65,0.00,,,0.00,weatherlink.com 1.10,2013-01-08 21:01:00,
2013-01-08 15:16:00,44.9,34.0,29.89,SW,221,0.0,11.0,66,0.00,,,0.00,weatherlink.com 1.10,2013-01-08 21:16:00,
2013-01-08 15:31:00,44.6,34.0,29.90,SSW,213,2.0,19.0,66,0.00,,,0.00,weatherlink.com 1.10,2013-01-08 21:31:00,
2013-01-08 15:47:00,44.3,34.0,29.91,SSW,201,7.0,16.0,67,0.00,,,0.00,weatherlink.com 1.10,2013-01-08 21:47:00,
2013-01-08 16:02:00,44.0,34.0,29.91,SSW,202,0.0,17.0,68,0.00,,,0.00,weatherlink.com 1.10,2013-01-08 22:02:00,
2013-01-08 16:17:00,43.6,34.0,29.91,SSW,200,5.0,7.0,69,0.00,,,0.00,weatherlink.com 1.10,2013-01-08 22:17:00,
2013-01-08 16:32:00,43.2,34.0,29.91,SSW,204,5.0,8.0,70,0.00,,,0.00,weatherlink.com 1.10,2013-01-08 22:32:00,
2013-01-08 16:47:00,42.4,34.0,29.92,South,179,5.0,8.0,71,0.00,,,0.00,weatherlink.com 1.10,2013-01-08 22:47:00,
2013-01-08 17:02:00,42.0,34.0,29.92,SSW,201,3.0,9.0,72,0.00,,,0.00,weatherlink.com 1.10,2013-01-08 23:02:00,
2013-01-08 17:17:00,41.6,33.0,29.94,SSW,205,7.0,10.0,72,0.00,,,0.00,weatherlink.com 1.10,2013-01-08 23:17:00,
2013-01-08 17:32:00,41.0,33.0,29.94,SSW,202,5.0,7.0,73,0.00,,,0.00,weatherlink.com 1.10,2013-01-08 23:32:00,
2013-01-08 17:47:00,40.3,33.0,29.94,SW,214,1.0,9.0,74,0.00,,,0.00,weatherlink.com 1.10,2013-01-08 23:47:00,
2013-01-08 18:02:00,39.6,33.0,29.95,SW,225,1.0,10.0,76,0.00,,,0.00,weatherlink.com 1.10,2013-01-09 00:02:00,
2013-01-08 18:17:00,39.3,33.0,29.95,SSW,211,2.0,8.0,77,0.00,,,0.00,weatherlink.com 1.10,2013-01-09 00:17:00,
2013-01-08 18:32:00,39.0,33.0,29.96,SW,214,4.0,11.0,78,0.00,,,0.00,weatherlink.com 1.10,2013-01-09 00:32:00,
2013-01-08 18:47:00,38.7,32.0,29.96,SW,217,4.0,9.0,78,0.00,,,0.00,weatherlink.com 1.10,2013-01-09 00:47:00,
2013-01-08 19:02:00,38.3,32.0,29.97,SW,222,0.0,8.0,79,0.00,,,0.00,weatherlink.com 1.10,2013-01-09 01:02:00,
2013-01-08 19:17:00,38.0,32.0,29.99,SW,223,4.0,7.0,80,0.00,,,0.00,weatherlink.com 1.10,2013-01-09 01:17:00,
2013-01-08 19:32:00,37.8,32.0,29.99,WSW,239,5.0,10.0,80,0.00,,,0.00,weatherlink.com 1.10,2013-01-09 01:32:00,
2013-01-08 19:47:00,37.6,32.0,30.00,WSW,240,9.0,10.0,81,0.00,,,0.00,weatherlink.com 1.10,2013-01-09 01:47:00,
2013-01-08 20:02:00,37.5,33.0,30.00,WSW,242,6.0,13.0,82,0.00,,,0.00,weatherlink.com 1.10,2013-01-09 02:02:00,
2013-01-08 20:17:00,38.0,33.0,30.02,WSW,245,13.0,17.0,81,0.00,,,0.00,weatherlink.com 1.10,2013-01-09 02:17:00,
2013-01-08 20:32:00,38.5,33.0,30.02,West,261,11.0,23.0,79,0.00,,,0.00,weatherlink.com 1.10,2013-01-09 02:32:00,
2013-01-08 20:47:00,38.4,32.0,30.02,WSW,250,9.0,19.0,79,0.00,,,0.00,weatherlink.com 1.10,2013-01-09 02:47:00,
2013-01-08 21:02:00,38.2,32.0,30.04,WSW,246,4.0,25.0,78,0.00,,,0.00,weatherlink.com 1.10,2013-01-09 03:02:00,
2013-01-08 21:17:00,37.7,32.0,30.04,WSW,249,13.0,19.0,79,0.00,,,0.00,weatherlink.com 1.10,2013-01-09 03:17:00,
2013-01-08 21:32:00,37.4,31.0,30.06,WSW,256,14.0,24.0,79,0.00,,,0.00,weatherlink.com 1.10,2013-01-09 03:32:00,
2013-01-08 21:47:00,37.0,31.0,30.06,WSW,251,7.0,26.0,80,0.00,,,0.00,weatherlink.com 1.10,2013-01-09 03:47:00,
2013-01-08 22:02:00,36.6,31.0,30.07,West,259,4.0,15.0,80,0.00,,,0.00,weatherlink.com 1.10,2013-01-09 04:02:00,
2013-01-08 22:17:00,36.3,31.0,30.07,WSW,254,13.0,17.0,81,0.00,,,0.00,weatherlink.com 1.10,2013-01-09 04:17:00,
2013-01-08 22:32:00,36.1,31.0,30.08,WSW,258,7.0,15.0,81,0.00,,,0.00,weatherlink.com 1.10,2013-01-09 04:32:00,
2013-01-08 22:47:00,35.7,30.0,30.09,WSW,256,7.0,15.0,81,0.00,,,0.00,weatherlink.com 1.10,2013-01-09 04:47:00,
2013-01-08 23:02:00,35.3,30.0,30.10,WSW,243,4.0,11.0,82,0.00,,,0.00,weatherlink.com 1.10,2013-01-09 05:02:00,
2013-01-08 23:17:00,34.6,30.0,30.11,WSW,240,9.0,10.0,83,0.00,,,0.00,weatherlink.com 1.10,2013-01-09 05:17:00,
2013-01-08 23:32:00,34.2,30.0,30.11,WSW,240,5.0,7.0,84,0.00,,,0.00,weatherlink.com 1.10,2013-01-09 05:32:00,
2013-01-08 23:47:00,33.8,30.0,30.11,WSW,240,6.0,8.0,84,0.00,,,0.00,weatherlink.com 1.10,2013-01-09 05:47:00,